Regional Weather Roundup
Issued by NWS

Home | Current Version | Previous Version | Text Only | Print | Product List | Glossary Off
Versions: 1 2 3 4 5 6 7 8 9 10 11 12 13 14 15 16 17 18 19 20 21 22 23 24 25 26 27 28 29 30 31 32 33 34 35 36 37 38 39 40 41 42 43 44 45 46 47 48 49 50

000
ASUS43 KOAX 011210
RWRNE

WEATHER ROUNDUP FOR NEBRASKA
NATIONAL WEATHER SERVICE OMAHA NE
700 AM CDT SAT AUG 01 2015

NOTES: SATELLITE DATA IS BEING USED TO AUGMENT CLOUD COVER ABOVE
       12000 FEET.
       "FAIR" INDICATES FEW OR NO CLOUDS BELOW 12,000 FEET WITH NO
       SIGNIFICANT WEATHER AND/OR OBSTRUCTIONS TO VISIBILITY.

  * THESE STATIONS DO NOT REPORT WEATHER SUCH AS RAIN...SNOW OR FOG.

NEZ001>004-019>022-054>056-011300-
NEBRASKA PANHANDLE

CITY           SKY/WX    TMP DP  RH WIND       PRES   REMARKS
SCOTTSBLUFF    CLEAR     63  56  78 E7        30.09S
6HR MIN TEMP:  63; 6HR MAX TEMP:  66;

ALLIANCE       CLEAR     58  54  86 SE3       30.08F
6HR MIN TEMP:  56; 6HR MAX TEMP:  63;

CHADRON        CLEAR     58  54  86 CALM      30.03S
6HR MIN TEMP:  56; 6HR MAX TEMP:  67;

KIMBALL        CLEAR     58  56  92 S7        30.15F
SIDNEY         CLEAR     65  57  75 SW15      30.14F
6HR MIN TEMP:  62; 6HR MAX TEMP:  68;

$$

NEZ057>060-069>072-079>082-011300-
SOUTHWEST NEBRASKA

CITY           SKY/WX    TMP DP  RH WIND       PRES   REMARKS
NORTH PLATTE   CLEAR     70  57  63 SW7       30.08R
6HR MIN TEMP:  62; 6HR MAX TEMP:  73;

IMPERIAL       CLEAR     63  57  81 S3        30.11F
6HR MIN TEMP:  63; 6HR MAX TEMP:  72;

LEXINGTON      CLEAR     63  58  83 N7        30.07R
MCCOOK         CLEAR     67  54  63 SW9       30.08F
6HR MIN TEMP:  67; 6HR MAX TEMP:  78;

OGALLALA       CLEAR     61  59  93 S6        30.11S
$$

NEZ005>010-023>029-035>040-094-011300-
NORTH CENTRAL NEBRASKA

CITY           SKY/WX    TMP DP  RH WIND       PRES   REMARKS
VALENTINE      PTCLDY    64  54  69 E7        30.08F
6HR MIN TEMP:  64; 6HR MAX TEMP:  70;

AINSWORTH      MOCLDY    65  56  73 E5        30.10R
BROKEN BOW     PTCLDY    68  58  70 NE16G22   30.15R
6HR MIN TEMP:  64; 6HR MAX TEMP:  70;

O`NEILL        CLOUDY    66  61  84 S14       30.04F
ORD            LGT RAIN  63  59  87 E9        30.16R
6HR MIN TEMP:  62; 6HR MAX TEMP:  67; 6HR PCP:  0.20;

THEDFORD       CLEAR     64  61  89 SE8       30.14R
$$

NEZ041-046>049-061>064-073>077-083>087-011300-
SOUTH CENTRAL NEBRASKA

CITY           SKY/WX    TMP DP  RH WIND       PRES   REMARKS
GRAND ISLAND   CLOUDY    69  59  70 E10       30.10S
6HR MIN TEMP:  65; 6HR MAX TEMP:  71;

AURORA         CLOUDY    68  61  79 NE7       30.12R
HASTINGS       CLEAR     67  60  78 E9        30.09S
6HR MIN TEMP:  66; 6HR MAX TEMP:  74;

HEBRON         PTCLDY    67  61  79 CALM      30.09S
HOLDREGE       CLEAR     64  61  91 E8        30.09R
KEARNEY *      CLEAR     63  59  88 E6        30.10R
YORK           CLOUDY    66  63  88 NW7       30.14R
$$

NEZ011>018-030>034-042>045-011300-
NORTHEAST NEBRASKA

CITY           SKY/WX    TMP DP  RH WIND       PRES   REMARKS
NORFOLK        CLOUDY    66  62  87 W9        30.08R
6HR MIN TEMP:  59; 6HR MAX TEMP:  67;

ALBION         RAIN      65  62  89 W8        30.14R
BLAIR          PTCLDY    66  64  93 CALM      30.04S
COLUMBUS *     CLOUDY    66  57  72 W6        30.09S
FREMONT        CLOUDY    65  63  93 W6        30.06R
TEKAMAH        PTCLDY    63  62  97 W3        30.04R
6HR MIN TEMP:  61; 6HR MAX TEMP:  67;

WAYNE          CLOUDY    62  60  94 S3        30.07R
$$

NEZ050>053-065>068-078-088>093-011300-
SOUTHEAST NEBRASKA

CITY           SKY/WX    TMP DP  RH WIND       PRES   REMARKS
LINCOLN        CLOUDY    69  64  84 N3        30.08R
6HR MIN TEMP:  63; 6HR MAX TEMP:  69;

OMAHA EPPLEY   MOCLDY    68  66  93 CALM      30.04R
6HR MIN TEMP:  68; 6HR MAX TEMP:  74;

BEATRICE       MOCLDY    67  64  91 W3        30.07R
FALLS CITY     MOCLDY    70  69  97 CALM      30.04R
6HR MIN TEMP:  69; 6HR MAX TEMP:  73;

NEBRASKA CITY  CLOUDY    68  68  98 S5        30.05R
PLATTSMOUTH    CLOUDY    65  64  96 CALM      30.05R
$$

NEZ044-045-051>053-067-011300-
OMAHA AREA

CITY           SKY/WX    TMP DP  RH WIND       PRES   REMARKS
OMAHA EPPLEY   MOCLDY    68  66  93 CALM      30.04R
6HR MIN TEMP:  68; 6HR MAX TEMP:  74;

BLAIR          PTCLDY    66  64  93 CALM      30.04S
FREMONT        CLOUDY    65  63  93 W6        30.06R
MILLARD        MOCLDY    68  66  94 CALM      30.04S
OFFUTT AFB     MOCLDY    67  67 100 N2        30.03R
PLATTSMOUTH    CLOUDY    65  64  96 CALM      30.05R
WAHOO          FAIR      65  63  93 NW5       30.05S
$$



USA.gov is the U.S. government's official web portal to all federal, state and local government web resources and services.